| time (UTC) | temp F | wind direction | speed MPH | gust MPH | rain 1hr in | rain 24hr in | rain mn in | humidity % | barometer mb |
| 20260506123057 | 46 | 6 | 2.0 | 5.0 | 0.00 | 0.72 | 0.42 | 88 | 1012.0 |
| 20260506121554 | 45 | 8 | 2.0 | 4.0 | 0.00 | 0.72 | 0.42 | 89 | 1011.5 |
| 20260506120050 | 45 | 360 | 2.0 | 5.0 | 0.00 | 0.72 | 0.42 | 90 | 1011.2 |
| 20260506114553 | 45 | 334 | 1.0 | 5.0 | 0.00 | 0.72 | 0.42 | 91 | 1011.1 |
| 20260506113050 | 44 | 325 | 1.0 | 5.0 | 0.00 | 0.72 | 0.42 | 91 | 1011.1 |
| 20260506111552 | 44 | 332 | 2.0 | 7.0 | 0.00 | 0.72 | 0.42 | 91 | 1010.6 |
| 20260506110047 | 45 | 53 | 2.0 | 6.0 | 0.00 | 0.72 | 0.42 | 92 | 1010.2 |
| 20260506104550 | 45 | 2 | 1.0 | 5.0 | 0.00 | 0.72 | 0.42 | 92 | 1010.2 |
| 20260506103046 | 45 | 11 | 2.0 | 4.0 | 0.00 | 0.72 | 0.42 | 92 | 1009.7 |
| 20260506101549 | 45 | 303 | 2.0 | 5.0 | 0.00 | 0.72 | 0.42 | 92 | 1009.6 |
| 20260506100049 | 45 | 27 | 5.0 | 8.0 | 0.00 | 0.72 | 0.42 | 92 | 1009.1 |
| 20260506094616 | 45 | 43 | 3.0 | 9.0 | 0.00 | 0.72 | 0.42 | 91 | 1009.2 |
| 20260506093048 | 45 | 29 | 4.0 | 11.0 | 0.01 | 0.72 | 0.42 | 91 | 1009.2 |
| 20260506091550 | 46 | 28 | 5.0 | 14.0 | 0.01 | 0.72 | 0.42 | 92 | 1009.2 |
| 20260506090048 | 46 | 359 | 6.0 | 13.0 | 0.01 | 0.72 | 0.42 | 92 | 1008.9 |
| 20260506084548 | 47 | 356 | 5.0 | 12.0 | 0.02 | 0.72 | 0.42 | 92 | 1008.6 |
| 20260506083053 | 47 | 14 | 5.0 | 12.0 | 0.01 | 0.71 | 0.41 | 92 | 1008.3 |
| 20260506081548 | 47 | 360 | 6.0 | 13.0 | 0.02 | 0.71 | 0.41 | 92 | 1008.1 |
| 20260506073050 | 49 | 7 | 6.0 | 10.0 | 0.14 | 0.70 | 0.40 | 93 | 1007.7 |
| 20260506071549 | 50 | 1 | 4.0 | 10.0 | 0.16 | 0.69 | 0.39 | 92 | 1007.4 |
| 20260506061549 | 57 | 360 | 1.0 | 5.0 | 0.08 | 0.52 | 0.23 | 93 | 1006.7 |
| 20260506060104 | 57 | 360 | 2.0 | 9.0 | 0.08 | 0.47 | 0.17 | 93 | 1007.0 |
| 20260506044554 | 58 | 179 | 4.0 | 8.0 | 0.02 | 0.32 | 0.02 | 93 | 1007.4 |
| 20260506043049 | 58 | 360 | 4.0 | 9.0 | 0.01 | 0.31 | 0.01 | 93 | 1007.3 |
| 20260506041549 | 58 | 219 | 5.0 | 10.0 | 0.01 | 0.31 | 0.01 | 93 | 1007.3 |
| 20260506040049 | 58 | 360 | 5.0 | 9.0 | 0.00 | 0.30 | 0.00 | 94 | 1007.4 |
| 20260506034544 | 58 | 211 | 0.0 | 1.0 | 0.00 | 0.30 | 0.30 | 94 | 1007.7 |
| 20260506033047 | 58 | 0 | 0.0 | 3.0 | 0.01 | 0.30 | 0.30 | 94 | 1007.7 |
| 20260506031551 | 58 | 0 | 0.0 | 0.0 | 0.01 | 0.30 | 0.30 | 93 | 1007.9 |
| 20260506030053 | 58 | 0 | 0.0 | 2.0 | 0.02 | 0.30 | 0.30 | 93 | 1007.8 |
| 20260506024558 | 58 | 153 | 3.0 | 5.0 | 0.02 | 0.30 | 0.30 | 93 | 1007.8 |
| 20260506023047 | 59 | 0 | 0.0 | 2.0 | 0.01 | 0.29 | 0.29 | 92 | 1008.4 |
| 20260506021552 | 59 | 0 | 0.0 | 0.0 | 0.01 | 0.29 | 0.29 | 92 | 1008.2 |
| 20260506020052 | 59 | 0 | 0.0 | 0.0 | 0.01 | 0.28 | 0.28 | 92 | 1008.1 |
| 20260506014552 | 59 | 0 | 0.0 | 0.0 | 0.01 | 0.28 | 0.28 | 91 | 1007.8 |
| 20260506013052 | 59 | 0 | 0.0 | 5.0 | 0.01 | 0.28 | 0.28 | 91 | 1007.9 |
| 20260506011549 | 59 | 360 | 2.0 | 7.0 | 0.01 | 0.28 | 0.28 | 91 | 1008.0 |
| 20260506010050 | 59 | 360 | 3.0 | 6.0 | 0.00 | 0.27 | 0.27 | 91 | 1007.6 |
| 20260506004555 | 60 | 360 | 2.0 | 7.0 | 0.01 | 0.27 | 0.27 | 91 | 1007.6 |
| 20260506003057 | 60 | 360 | 3.0 | 8.0 | 0.02 | 0.27 | 0.27 | 90 | 1007.6 |
| 20260506001552 | 60 | 360 | 5.0 | 10.0 | 0.05 | 0.27 | 0.27 | 91 | 1007.8 |
| 20260506000052 | 60 | 360 | 3.0 | 9.0 | 0.05 | 0.27 | 0.27 | 92 | 1007.9 |
| 20260505234558 | 60 | 177 | 3.0 | 5.0 | 0.04 | 0.26 | 0.26 | 93 | 1007.7 |
| 20260505233045 | 60 | 0 | 0.0 | 0.0 | 0.03 | 0.25 | 0.25 | 92 | 1008.0 |
| 20260505231559 | 60 | 0 | 0.0 | 0.0 | 0.00 | 0.22 | 0.22 | 92 | 1008.2 |
| 20260505230058 | 60 | 0 | 0.0 | 2.0 | 0.00 | 0.22 | 0.22 | 92 | 1008.1 |
| 20260505224555 | 60 | 347 | 0.0 | 3.0 | 0.00 | 0.22 | 0.22 | 92 | 1008.3 |
| 20260505223053 | 60 | 143 | 2.0 | 4.0 | 0.01 | 0.22 | 0.22 | 92 | 1008.5 |
| 20260505221553 | 60 | 201 | 2.0 | 5.0 | 0.02 | 0.22 | 0.22 | 91 | 1008.8 |
| 20260505220051 | 60 | 166 | 3.0 | 6.0 | 0.04 | 0.22 | 0.22 | 91 | 1009.0 |
| 20260505214543 | 61 | 360 | 5.0 | 13.0 | 0.05 | 0.21 | 0.21 | 91 | 1009.2 |
| 20260505213058 | 61 | 193 | 7.0 | 12.0 | 0.08 | 0.21 | 0.21 | 91 | 1009.5 |
| 20260505211551 | 61 | 360 | 5.0 | 10.0 | 0.16 | 0.20 | 0.20 | 92 | 1009.5 |
| 20260505210048 | 61 | 360 | 4.0 | 10.0 | 0.18 | 0.18 | 0.18 | 92 | 1009.6 |
| 20260505204556 | 61 | 360 | 3.0 | 6.0 | 0.16 | 0.16 | 0.16 | 92 | 1009.6 |
| 20260505203042 | 61 | 254 | 4.0 | 8.0 | 0.13 | 0.13 | 0.13 | 91 | 1009.8 |
| 20260505201551 | 62 | 317 | 8.0 | 15.0 | 0.04 | 0.04 | 0.04 | 87 | 1009.7 |
| 20260505200048 | 68 | 360 | 7.0 | 15.0 | 0.00 | 0.00 | 0.00 | 66 | 1009.2 |
| 20260505194548 | 69 | 360 | 9.0 | 19.0 | 0.00 | 0.00 | 0.00 | 65 | 1009.2 |
| 20260505193047 | 69 | 360 | 8.0 | 14.0 | 0.00 | 0.00 | 0.00 | 65 | 1009.2 |
| 20260505191608 | 69 | 360 | 9.0 | 25.0 | 0.00 | 0.00 | 0.00 | 64 | 1009.5 |
| 20260505190048 | 69 | 360 | 8.0 | 18.0 | 0.00 | 0.00 | 0.00 | 65 | 1009.4 |
| 20260505184552 | 69 | 200 | 12.0 | 23.0 | 0.00 | 0.00 | 0.00 | 65 | 1009.4 |
| 20260505183045 | 68 | 360 | 10.0 | 19.0 | 0.00 | 0.00 | 0.00 | 65 | 1009.8 |
| 20260505181548 | 69 | 360 | 10.0 | 18.0 | 0.00 | 0.00 | 0.00 | 65 | 1010.1 |
| 20260505174601 | 68 | 184 | 9.0 | 15.0 | 0.00 | 0.00 | 0.00 | 66 | 1010.0 |
| 20260505173049 | 68 | 360 | 11.0 | 25.0 | 0.00 | 0.00 | 0.00 | 65 | 1010.3 |
| 20260505171549 | 68 | 360 | 15.0 | 23.0 | 0.00 | 0.00 | 0.00 | 64 | 1010.6 |
| 20260505170049 | 68 | 360 | 11.0 | 19.0 | 0.00 | 0.00 | 0.00 | 64 | 1010.6 |
| 20260505164549 | 68 | 360 | 7.0 | 20.0 | 0.00 | 0.00 | 0.00 | 65 | 1010.7 |
| 20260505163050 | 68 | 360 | 7.0 | 20.0 | 0.00 | 0.00 | 0.00 | 65 | 1010.7 |
| 20260505161554 | 67 | 360 | 8.0 | 20.0 | 0.00 | 0.00 | 0.00 | 65 | 1010.8 |
| 20260505153053 | 66 | 360 | 10.0 | 17.0 | 0.00 | 0.00 | 0.00 | 64 | 1010.7 |
| 20260505151553 | 66 | 360 | 9.0 | 17.0 | 0.00 | 0.00 | 0.00 | 66 | 1010.3 |
| 20260505124549 | 60 | 191 | 7.0 | 12.0 | 0.00 | 0.00 | 0.00 | 82 | 1010.6 |